Wind_Speed
10 10 10 10 10 10 9 8 7 7 8 10 11 13 15 16 17 18 14 16 18 20 18 12 5 6 10 11 7 6 7 6 4 7 10 7 9 10 13 9 9 6 5 3 15
13 13 12 12 12 12 11 10 9 7 7 7 9 10 12 13 14 14 13 14 15 16 16 12 5 7 11 14 9 6 8 6 6 8 7 8 10 13 17 14 12 9 3 6 13
16 16 16 15 14 13 13 11 10 9 8 7 6 8 8 9 9 10 10 10 11 11 11 11 8 7 8 5 7 5 9 5 5 6 6 9 14 15 15 13 16 14 12 10 15
20 20 20 20 18 17 15 14 12 11 10 8 5 6 6 5 4 6 7 7 8 10 10 10 9 7 4 4 1 3 5 4 3 5 7 9 13 13 16 13 16 16 19 17 14
23 23 23 23 23 21 19 17 15 14 12 11 7 6 6 4 1 3 5 5 5 6 9 10 7 7 10 5 2 1 6 7 5 6 7 8 11 13 16 16 14 15 20 18 18
25 26 25 25 25 24 23 21 19 17 15 13 10 7 7 6 4 4 7 7 5 6 5 9 4 7 14 9 5 1 6 8 7 6 7 9 11 13 18 17 13 14 16 20 20
29 29 29 28 27 26 26 24 22 20 18 15 12 10 9 9 7 7 7 6 3 8 7 7 2 5 13 19 11 6 9 9 10 6 7 9 10 10 18 15 14 11 11 14 17
33 33 33 33 32 31 28 26 25 23 20 16 15 12 11 12 11 11 11 9 11 11 10 13 10 12 18 24 22 19 3 13 11 9 6 6 11 11 17 14 9 9 9 11 17
33 34 34 35 36 36 33 30 27 25 22 20 19 18 16 17 16 14 15 14 8 13 12 14 11 8 20 26 28 26 24 17 17 10 6 5 8 8 16 15 10 4 6 4 14
28 29 31 32 33 35 36 33 30 28 25 24 22 22 20 19 20 17 16 14 7 12 15 15 14 8 22 23 24 24 24 27 23 23 17 11 8 6 9 11 11 7 4 4 4
21 20 17 18 22 25 28 28 28 28 27 24 23 24 22 20 19 17 17 14 10 14 19 17 14 13 18 20 19 19 19 22 21 20 17 16 17 5 6 6 6 6 6 5 6
16 14 12 8 6 9 13 18 21 22 21 21 20 22 20 18 19 16 13 12 14 20 23 20 17 16 16 16 15 16 17 16 15 17 15 13 16 18 7 6 6 5 5 3 4
13 11 7 4 0 4 6 8 10 12 13 14 15 17 18 21 21 17 16 15 17 27 25 22 20 18 15 15 13 10 11 14 14 13 12 12 13 15 18 14 10 6 3 2 3
10 7 6 6 5 5 5 8 10 11 13 13 14 16 19 23 23 20 21 21 22 30 26 23 22 18 14 12 10 6 9 15 16 17 17 16 12 9 9 8 7 6 4 4 6
9 7 4 3 3 4 5 7 9 11 10 13 14 18 20 22 21 19 20 21 26 33 27 24 21 20 15 9 7 5 6 16 15 14 14 14 12 8 6 5 5 7 8 11 11
9 8 7 4 4 5 6 6 6 2 4 7 13 17 19 21 21 19 21 21 28 33 33 25 21 19 15 11 8 7 6 9 12 12 13 13 16 15 11 5 7 12 15 14 17
10 10 10 9 8 10 9 7 3 4 4 5 10 14 17 18 19 21 21 20 22 26 33 26 21 16 13 12 10 3 8 5 7 8 10 11 16 16 16 14 14 11 16 19 19
11 8 10 9 10 8 7 6 3 1 2 4 10 14 15 15 16 18 18 19 19 21 34 26 20 16 16 16 13 12 8 7 2 5 8 9 15 17 12 12 19 18 10 19 17
8 7 10 7 8 10 9 9 9 8 7 8 14 13 13 13 14 14 15 16 17 21 33 23 16 11 12 14 17 17 13 14 7 3 5 8 13 18 13 12 17 19 1 14 16
4 7 8 8 5 7 7 16 22 21 18 15 14 13 13 12 13 16 18 18 18 26 28 23 13 14 12 13 15 19 18 17 12 5 6 9 13 13 15 11 13 22 9 11 11
1 3 5 7 7 6 8 9 14 15 15 14 10 10 10 14 18 18 17 17 25 26 26 19 16 17 17 14 16 15 18 21 16 6 7 8 10 8 15 9 11 21 20 18 13
4 3 2 4 8 8 7 7 9 12 10 9 9 7 10 15 17 18 20 16 25 21 22 18 20 19 17 13 6 7 16 18 15 8 6 10 9 7 12 7 13 7 12 14 11
6 2 3 4 0 5 8 6 9 11 8 5 8 11 11 13 13 16 19 21 20 20 19 21 22 17 15 9 5 2 6 8 9 9 10 11 13 9 12 8 8 6 3 3 4
6 7 5 5 4 1 4 4 12 17 12 12 9 11 13 13 13 11 12 18 20 20 17 18 18 15 12 10 7 7 4 11 11 7 11 13 13 16 15 9 10 9 8 10 13
8 7 7 7 4 3 3 2 5 17 19 14 14 14 14 16 15 16 17 15 26 22 21 22 22 20 20 16 13 12 8 11 10 11 13 13 10 9 9 12 13 15 14 14 14
8 8 7 6 5 4 3 5 8 10 17 18 18 14 20 20 19 13 12 12 12 13 15 14 15 18 20 23 20 17 15 11 10 8 12 10 10 9 12 15 14 13 17 19 20
7 5 5 5 5 6 7 8 10 9 8 8 14 16 17 20 22 20 18 17 16 15 18 18 19 18 17 17 21 24 23 18 15 13 12 10 11 10 13 16 18 19 18 16 14
Wind_Direction
314 314 313 316 319 322 325 329 343 355 8 17 17 24 31 42 46 50 58 61 52 39 31 38 106 80 144 159 161 169 126 100 83 61 44 34 43 50 57 47 21 30 121 161 172
302 301 300 300 303 310 311 311 313 326 340 357 2 5 20 32 46 54 58 56 49 39 41 44 58 69 134 171 198 157 123 97 75 55 58 58 49 48 50 38 40 42 66 184 180
291 291 291 292 290 292 296 296 298 303 311 323 343 343 1 16 38 60 81 76 66 64 56 58 64 77 113 143 137 149 143 133 83 67 52 55 50 47 43 44 53 48 47 164 135
282 280 281 283 283 281 281 282 280 283 288 296 311 315 328 353 42 83 125 117 96 105 87 70 76 86 69 41 63 152 155 140 69 80 52 38 52 56 53 56 80 55 59 122 129
279 277 275 275 277 276 274 274 271 271 273 277 280 279 285 295 97 137 141 163 142 147 126 106 86 58 49 20 334 161 169 162 143 97 72 47 46 60 57 61 92 73 64 141 137
277 276 274 272 270 271 269 267 265 263 265 266 267 255 253 253 213 212 199 196 219 184 185 145 65 35 28 357 320 84 158 155 161 111 80 64 63 56 59 61 90 84 71 95 131
277 275 273 271 267 264 263 262 261 260 259 258 253 242 237 242 226 220 222 261 227 197 213 179 220 67 50 46 25 288 222 169 150 127 96 87 86 79 75 68 77 64 86 79 109
279 273 268 265 263 260 258 257 256 254 252 249 248 242 233 233 227 221 219 218 208 205 192 142 130 100 73 73 58 57 25 186 150 119 114 100 101 97 91 86 91 83 71 69 90
283 277 270 262 257 254 253 251 251 249 246 245 245 243 235 230 227 225 217 224 222 191 193 158 146 130 87 89 81 73 77 125 102 87 99 102 95 96 95 92 81 78 85 91 118
301 291 278 266 256 250 246 245 245 244 244 243 245 244 239 231 229 223 225 230 214 191 186 157 172 156 104 95 86 83 83 105 95 78 77 72 60 68 83 92 97 86 86 111 104
315 315 306 281 262 251 244 241 241 243 244 243 242 242 238 232 233 228 228 222 190 186 187 160 167 142 120 103 88 81 88 103 98 77 71 62 52 53 66 71 75 83 89 103 132
316 322 325 309 269 238 231 233 235 237 239 240 236 233 230 224 225 220 219 218 191 182 171 160 145 142 133 119 96 83 95 93 89 82 68 65 56 53 71 67 55 30 33 43 119
310 314 328 338 105 166 184 198 203 209 214 215 220 223 220 216 214 202 196 192 188 177 174 170 149 144 143 116 106 82 84 79 83 92 93 74 59 63 64 46 33 33 21 345 313
334 319 296 279 271 251 238 230 229 228 226 219 214 207 208 210 213 206 196 184 185 180 182 178 154 151 151 124 112 114 93 76 75 81 86 85 68 57 65 49 30 11 314 299 263
344 334 316 279 272 252 251 241 238 233 226 218 208 202 204 205 203 201 199 193 186 192 188 178 166 153 162 167 136 146 95 82 81 80 89 80 73 49 27 360 325 294 300 261 254
4 23 47 63 98 105 105 104 97 127 197 196 193 196 200 204 202 197 194 192 192 196 186 186 179 152 174 197 199 157 164 102 87 71 74 58 47 28 7 328 283 262 266 241 234
34 52 62 80 81 81 76 76 95 147 113 185 186 189 192 198 195 194 190 193 199 196 182 191 187 180 191 201 225 194 189 134 91 59 45 31 20 14 2 2 353 294 246 240 222
38 52 56 73 84 85 62 28 343 183 173 172 166 170 177 187 185 183 188 190 193 194 185 199 181 192 207 226 238 264 218 211 140 61 35 18 21 26 352 356 360 2 218 214 220
38 51 62 85 68 45 39 61 75 93 118 140 140 141 156 174 179 178 175 181 184 185 189 192 189 217 234 232 240 268 270 243 235 40 6 3 9 16 352 343 1 4 161 210 194
32 48 56 46 42 56 84 89 90 97 103 102 117 127 145 151 154 154 166 174 173 171 178 181 183 203 223 234 241 253 251 229 244 256 330 341 8 28 12 328 2 1 148 187 182
335 83 34 37 41 99 129 106 100 106 100 94 104 127 141 144 140 153 160 166 165 162 172 172 190 191 213 235 245 240 227 223 243 250 293 325 28 17 17 37 52 57 71 93 102
229 191 106 63 41 65 168 163 150 128 117 110 116 143 148 153 148 160 153 155 168 166 178 187 193 203 217 231 232 259 227 224 230 227 271 296 328 11 12 25 64 79 85 106 109
248 211 161 171 344 19 57 168 193 180 166 171 159 162 164 164 151 161 174 169 170 184 187 188 194 212 224 215 185 157 166 201 212 231 259 275 304 312 349 341 346 358 73 159 222
241 234 215 224 205 292 3 59 192 207 198 195 207 182 183 182 185 181 188 199 188 189 195 196 204 220 229 231 232 238 230 212 227 242 260 281 290 305 327 311 311 303 280 266 264
235 226 216 227 226 254 290 232 190 208 214 220 211 213 201 203 209 209 210 207 203 208 215 219 228 230 224 227 241 238 230 235 244 262 282 288 290 319 320 324 312 313 310 302 292
235 236 226 226 238 235 224 254 237 221 229 237 224 220 215 211 211 217 205 194 197 210 211 221 234 227 224 231 234 245 252 249 242 271 292 275 286 301 304 308 323 329 313 292 288
218 209 211 202 205 205 216 225 242 255 248 225 230 231 224 226 231 234 232 233 233 243 238 243 242 249 246 231 230 237 242 246 265 260 252 261 274 284 311 309 304 307 313 301 299
Height
5936 5936 5935 5934 5933 5933 5932 5931 5931 5930 5930 5929 5927 5926 5925 5924 5922 5921 5919 5918 5916 5915 5911 5908 5908 5909 5909 5912 5913 5913 5914 5913 5913 5912 5910 5909 5908 5905 5903 5901 5898 5897 5896 5895 5896
5935 5934 5934 5933 5932 5932 5931 5931 5930 5930 5929 5929 5928 5926 5926 5924 5923 5922 5921 5919 5917 5916 5914 5913 5913 5912 5912 5912 5914 5916 5917 5915 5914 5914 5912 5911 5908 5906 5904 5900 5899 5897 5896 5893 5896
5932 5931 5931 5931 5930 5930 5929 5929 5929 5929 5928 5929 5928 5926 5926 5925 5925 5924 5922 5921 5919 5918 5918 5917 5917 5916 5917 5916 5917 5918 5918 5917 5917 5916 5915 5912 5909 5907 5905 5903 5900 5899 5896 5894 5899
5928 5928 5927 5927 5927 5927 5927 5926 5927 5927 5927 5927 5927 5926 5925 5926 5926 5925 5924 5923 5921 5920 5921 5921 5920 5920 5919 5919 5919 5919 5919 5919 5919 5918 5917 5916 5911 5910 5909 5906 5904 5904 5901 5899 5901
5923 5923 5923 5923 5923 5923 5923 5923 5924 5924 5925 5925 5926 5925 5924 5925 5925 5924 5924 5924 5923 5922 5923 5924 5922 5922 5924 5922 5920 5920 5920 5921 5921 5920 5918 5918 5916 5913 5911 5909 5909 5908 5907 5905 5906
5917 5917 5917 5918 5918 5918 5918 5919 5920 5920 5921 5922 5923 5924 5923 5924 5924 5924 5924 5923 5923 5924 5924 5924 5923 5925 5925 5922 5922 5921 5922 5922 5921 5921 5921 5920 5919 5918 5913 5912 5914 5913 5913 5911 5911
5911 5911 5910 5911 5912 5912 5912 5913 5915 5916 5917 5919 5920 5921 5922 5923 5922 5922 5923 5923 5923 5924 5925 5926 5927 5929 5928 5925 5922 5921 5923 5925 5923 5923 5923 5922 5921 5919 5916 5916 5917 5919 5919 5919 5918
5902 5902 5902 5903 5904 5904 5905 5907 5908 5910 5912 5914 5916 5918 5920 5920 5920 5920 5921 5922 5923 5925 5925 5928 5930 5930 5930 5926 5923 5919 5918 5919 5923 5925 5925 5925 5923 5921 5917 5919 5920 5920 5922 5922 5925
5893 5892 5892 5892 5894 5895 5897 5900 5902 5904 5906 5909 5911 5913 5916 5917 5917 5918 5919 5921 5924 5925 5926 5929 5931 5931 5932 5929 5926 5923 5919 5921 5926 5928 5927 5927 5925 5923 5919 5920 5922 5924 5925 5926 5926
5885 5882 5881 5881 5882 5884 5887 5891 5894 5897 5900 5903 5905 5908 5910 5913 5914 5916 5917 5920 5924 5926 5927 5930 5931 5931 5933 5932 5931 5929 5926 5926 5927 5929 5928 5928 5928 5926 5923 5923 5923 5926 5928 5929 5930
5881 5877 5874 5873 5873 5875 5879 5883 5888 5891 5894 5897 5900 5901 5904 5908 5910 5913 5915 5918 5923 5925 5927 5930 5932 5932 5932 5933 5932 5932 5931 5930 5928 5929 5929 5929 5929 5927 5926 5926 5927 5927 5928 5930 5932
5878 5875 5873 5871 5870 5871 5873 5876 5879 5884 5888 5891 5894 5896 5899 5903 5906 5910 5914 5918 5921 5924 5927 5930 5930 5932 5933 5933 5933 5933 5933 5933 5932 5930 5931 5931 5931 5928 5928 5929 5928 5928 5928 5929 5932
5876 5874 5873 5872 5871 5871 5872 5875 5877 5880 5884 5887 5889 5892 5896 5899 5902 5906 5910 5914 5918 5923 5925 5928 5930 5932 5933 5933 5934 5935 5936 5935 5935 5933 5933 5932 5931 5930 5930 5930 5930 5929 5929 5929 5930
5875 5873 5872 5871 5872 5872 5873 5874 5876 5878 5881 5885 5886 5888 5891 5894 5898 5903 5906 5911 5915 5922 5924 5927 5930 5931 5932 5933 5936 5937 5937 5937 5936 5934 5933 5933 5935 5933 5932 5931 5931 5930 5930 5930 5930
5875 5872 5871 5870 5871 5871 5872 5872 5874 5876 5878 5882 5883 5884 5887 5891 5895 5899 5903 5908 5911 5916 5923 5928 5928 5929 5932 5934 5937 5939 5939 5938 5937 5937 5936 5936 5936 5934 5932 5931 5930 5929 5928 5927 5929
5877 5875 5873 5872 5871 5872 5872 5873 5874 5876 5876 5878 5880 5882 5886 5888 5892 5897 5901 5905 5908 5912 5918 5923 5926 5928 5931 5934 5937 5939 5940 5939 5938 5939 5939 5938 5936 5935 5932 5929 5928 5926 5924 5924 5926
5880 5878 5877 5876 5876 5875 5875 5876 5877 5877 5878 5879 5879 5881 5884 5888 5892 5896 5899 5904 5908 5912 5919 5921 5926 5928 5930 5933 5936 5939 5940 5940 5940 5939 5939 5938 5937 5934 5931 5928 5927 5923 5921 5921 5923
5882 5882 5882 5881 5880 5879 5879 5879 5877 5877 5878 5878 5878 5881 5884 5888 5892 5896 5899 5903 5907 5911 5917 5921 5927 5927 5929 5932 5935 5937 5940 5941 5940 5940 5940 5939 5938 5935 5929 5926 5922 5915 5915 5916 5918
5885 5885 5886 5885 5884 5883 5884 5881 5878 5878 5879 5880 5882 5884 5887 5889 5893 5896 5900 5903 5906 5910 5917 5921 5924 5926 5928 5930 5934 5935 5938 5940 5940 5940 5940 5940 5939 5936 5930 5925 5922 5918 5914 5915 5918
5887 5886 5887 5887 5887 5887 5888 5885 5883 5883 5884 5886 5887 5888 5890 5891 5894 5896 5899 5902 5905 5910 5915 5921 5924 5926 5927 5929 5930 5932 5935 5937 5938 5940 5940 5939 5939 5937 5932 5927 5922 5916 5910 5915 5921
5887 5887 5887 5888 5888 5889 5889 5889 5888 5888 5890 5891 5892 5893 5894 5895 5896 5898 5901 5904 5907 5911 5917 5920 5923 5926 5926 5927 5928 5930 5932 5934 5937 5939 5939 5939 5940 5937 5934 5930 5927 5924 5921 5922 5925
5887 5888 5888 5888 5889 5889 5890 5890 5891 5891 5891 5892 5894 5895 5896 5898 5899 5901 5904 5906 5910 5913 5916 5920 5922 5924 5925 5926 5927 5928 5930 5932 5935 5938 5938 5938 5939 5938 5936 5934 5931 5931 5929 5929 5930
5885 5886 5887 5887 5888 5888 5888 5890 5891 5892 5892 5892 5894 5896 5897 5900 5902 5903 5906 5908 5910 5914 5917 5919 5922 5923 5924 5927 5928 5928 5930 5932 5934 5935 5937 5937 5938 5936 5936 5935 5935 5934 5933 5933 5933
5883 5884 5886 5886 5887 5887 5887 5887 5889 5890 5891 5892 5893 5895 5897 5900 5902 5905 5906 5909 5910 5913 5916 5918 5920 5922 5924 5925 5927 5928 5930 5931 5933 5935 5935 5935 5935 5935 5934 5933 5934 5934 5935 5934 5933
5881 5882 5884 5884 5884 5885 5885 5886 5886 5887 5888 5889 5891 5893 5896 5898 5900 5903 5906 5908 5910 5912 5914 5916 5917 5919 5921 5922 5924 5926 5929 5930 5932 5933 5934 5933 5932 5932 5931 5931 5929 5928 5927 5927 5926
5878 5879 5881 5882 5882 5883 5884 5884 5884 5884 5886 5886 5888 5889 5892 5894 5898 5901 5903 5906 5908 5910 5911 5912 5914 5916 5917 5919 5921 5923 5925 5927 5929 5931 5931 5930 5930 5928 5928 5929 5927 5926 5924 5921 5920
5876 5877 5879 5880 5881 5881 5882 5882 5882 5883 5884 5884 5885 5887 5889 5892 5894 5896 5899 5902 5904 5906 5907 5908 5909 5910 5912 5914 5917 5920 5921 5924 5926 5927 5929 5929 5928 5926 5925 5924 5923 5922 5919 5916 5915